Regional Weather Roundup
Issued by NWS

Home | Current Version | Previous Version | Text Only | Print | Product List | Glossary Off
Versions: 1 2 3 4 5 6 7 8 9 10 11 12 13 14 15 16 17 18 19 20 21 22 23 24 25 26 27 28 29 30 31 32 33 34 35 36 37 38 39 40 41 42 43 44 45 46 47 48 49 50

000
ASUS43 KMPX 220501
RWRMN
WEATHER ROUNDUP FOR MINNESOTA
NATIONAL WEATHER SERVICE TWIN CITIES/CHANHASSEN MN
1200 AM CDT MON SEP 22 2014


NOTE: "FAIR" INDICATES FEW OR NO CLOUDS BELOW 12,000 FEET WITH NO
SIGNIFICANT WEATHER AND/OR OBSTRUCTIONS TO VISIBILITY. N/A MEANS
CURRENT SKY AND/OR WEATHER CONDITIONS ARE NOT AVAILABLE.

MNZ060>063-068>070-220600-
   Twin Cities Metro

CITY           SKY/WX    TMP DP  RH WIND       PRES   REMARKS
TWIN CITIES    CLEAR     54  49  83 NW7       30.23R
ST PAUL        CLEAR     51  49  92 CALM      30.23S
CRYSTAL        CLEAR     54  49  83 NW5       30.22S
BLAINE         CLEAR     52  52 100 CALM      30.22S
LAKEVILLE      CLEAR     50  48  93 W5        30.23S
EDEN PRAIRIE   CLEAR     54  50  86 NW5       30.22S
SOUTH ST PAUL  CLEAR     51  47  84 CALM      30.23R
LAKE ELMO      FAIR      45  45 100 CALM      30.23R
$$
MNZ001>005-007-008-013>017-022>024-027-028-220600-
   Northwest Minnesota

CITY           SKY/WX    TMP DP  RH WIND       PRES   REMARKS
BEMIDJI        CLEAR     48  47  94 SW5       30.19F
HALLOCK        CLEAR     48  46  93 S7        30.15F
ROSEAU         CLEAR     48  45  87 S7        30.16S
WARROAD        CLEAR     50  46  87 SW6       30.16S
THIEF RVR FALL CLEAR     48  45  87 S7        30.19S
CROOKSTON      CLEAR     48  46  93 S7        30.20S
FOSSTON        CLEAR     43  43 100 CALM      30.21S
DETROIT LAKES  CLEAR     48  48 100 CALM      30.23F FOG
MOORHEAD       CLEAR     52  52 100 S6        30.22S
PARK RAPIDS    CLEAR     45  43  93 CALM      30.21F
MAHNOMEN       FAIR      45  44  96 S5        30.21S
$$
MNZ006-009>011-018-025>026-220600-
   North Central Minnesota

CITY           SKY/WX    TMP DP  RH WIND       PRES   REMARKS
BAUDETTE       CLEAR     47  45  93 SW3       30.15F
FLAG ISLAND    CLEAR     52  48  87 SW9       30.12F
INTL FALLS     CLEAR     43  41  93 CALM      30.16S
WASKISH        CLEAR     48  46  93 CALM      30.18S
BIG FORK       FOG       45  45 100 CALM      30.18F VSB 3/4
LONGVILLE      CLEAR     43  43 100 CALM      30.20S
GRAND RAPIDS   CLEAR     45  43  93 CALM      30.19F
CRANE LAKE     CLOUDY    52  48  87 CALM      30.17S
ORR            CLOUDY    52  48  87 CALM      30.15S
COOK           CLOUDY    50  48  93 CALM      30.17S
WALKER         FAIR      44  44  99 CALM      30.21S
$$
MNZ012-019>021-037-220600-
   Northeast Minnesota

CITY           SKY/WX    TMP DP  RH WIND       PRES   REMARKS
DULUTH         CLEAR     47  43  86 W7        30.18S
ELY            CLOUDY    45  43  93 CALM      30.15F
HIBBING        CLEAR     44  42  93 CALM      30.18S FOG
EVELETH        PTCLDY    48  45  87 CALM      30.18S
DULUTH HARBOR  CLEAR     50  46  87 CALM      30.18S
TWO HARBORS    MOCLDY    46  41  81 CALM      30.15S
SILVER BAY     CLEAR     37  37 100 CALM      30.15S
GRAND MARAIS     N/A     45  43  93 CALM      30.13F
G MARAIS ARPRT CLEAR     41  37  87 CALM      30.14F
$$
MNZ029>031-032-039>041-046>048-054>057-064-220600-
   West Central Minnesota

CITY           SKY/WX    TMP DP  RH WIND       PRES   REMARKS
FERGUS FALLS   CLEAR     48  46  93 CALM      30.24R
WHEATON        CLEAR     48  46  93 S7        30.25S
MORRIS         CLEAR     46  45  93 SE5       30.23F FOG
ALEXANDRIA     CLEAR     47  44  90 SW3       30.24F
ELBOW LAKE     FAIR      49  46  92 SE3       30.23S
WADENA         FOG       43  41  93 CALM      30.22F VSB 3/4
GLENWOOD       CLEAR     46  46 100 CALM      30.24F
APPLETON       FOG       46  45  93 CALM      30.24S VSB 3/4
BENSON         FOG       45  45 100 CALM      30.24F VSB 1/2
ORTONVILLE     CLEAR     48  46  93 S3        30.24S
MADISON        CLEAR     48  46  93 SW5       30.25S
WILLMAR        FAIR      46  43  87 CALM      30.26S
$$
MNZ033>034-036-042>043-049>051-058-059-220600-
   Central Minnesota

CITY           SKY/WX    TMP DP  RH WIND       PRES   REMARKS
ST CLOUD       CLEAR     51  48  89 CALM      30.23S
SAUK CENTRE    FOG       43  43  99 CALM      30.24S VSB 1
PAYNESVILLE    CLEAR     42  42 100 CALM      30.25S
AITKIN         CLEAR     46  41  81 CALM      30.20S HAZE
PINE RIVER     CLEAR     45  45 100 CALM      30.24S
BRAINERD       CLEAR     45  45 100 SW3       30.23S
STAPLES        CLEAR     45  45 100 CALM      30.22F
LONG PRAIRIE   FAIR      43  43 100 CALM      30.24S
LITTLE FALLS     N/A     43  43 100 CALM      30.23S FOG
LITCHFIELD     CLEAR     52  50  93 CALM      30.25S
BUFFALO        CLEAR     52  48  86 CALM      30.24S
MAPLE LAKE     CLEAR     52  50  91 NW3       30.25R
$$
MNZ037-044-045-052-053-220600-
   East Central Minnesota

CITY           SKY/WX    TMP DP  RH WIND       PRES   REMARKS
PRINCETON      CLEAR     48  46  93 W2        30.23S
MORA           CLEAR     45  45 100 CALM      30.23S
CAMBRIDGE      CLEAR     52  43  71 CALM      30.20S
RUSH CITY      PTCLDY    47  45  95 CALM      30.21S
MOOSE LAKE     CLEAR     43  43 100 CALM      30.18S
HINCKLEY       FAIR      45  45 100 CALM      30.21R
CLOQUET        CLEAR     48  45  87 W7        30.18F
MCGREGOR       CLEAR     46  45  93 CALM      30.21S
$$
MNZ071>073-080-081-089-090-097-098-220600-
   Southwest Minnesota

CITY           SKY/WX    TMP DP  RH WIND       PRES   REMARKS
MONTEVIDEO     CLEAR     48  45  87 SW3       30.26S
GRANITE FALLS  CLEAR     44  44  99 CALM      30.27S
CANBY          CLEAR     47  45  95 CALM      30.27S
MARSHALL       CLEAR     46  41  81 SW5       30.25S
REDWOOD FALLS  CLEAR     49  46  90 CALM      30.25S
OLIVIA         CLEAR     50  46  87 CALM      30.24S
PIPESTONE      CLEAR     48  46  93 CALM      30.27S
WINDOM         CLEAR     45  43  93 CALM      30.27S
WORTHINGTON    CLEAR     45  41  87 CALM      30.28S
JACKSON        CLEAR     46  45  93 CALM      30.27S
TRACY          CLEAR     50  47  91 CALM      30.27S
SLAYTON        CLEAR     45  43  92 CALM      30.28S
$$
MNZ065>067-074>077-082>085-091>093-220600-
   South Central Minnesota

CITY           SKY/WX    TMP DP  RH WIND       PRES   REMARKS
MANKATO        CLEAR     52  45  76 N5        30.24F
NEW ULM        CLEAR     46  46 100 CALM      30.25S
ST JAMES       CLEAR     46  45  93 W3        30.27S
FAIRMONT       CLEAR     48  43  81 CALM      30.26R
GLENCOE        CLEAR     52  47  83 CALM      30.24S
FARIBAULT      CLEAR     55  48  76 NW5       30.24S
OWATONNA       CLEAR     46  45  93 CALM      30.24S
WASECA         CLEAR     48  45  87 NW5       30.26S
ALBERT LEA     CLEAR     54  48  82 NW3       30.24S
$$
MNZ078>079-086>088-094>096-220600-
   Southeast Minnesota

CITY           SKY/WX    TMP DP  RH WIND       PRES   REMARKS
ROCHESTER      CLEAR     48  45  89 W8        30.23S
RED WING       CLEAR     48  46  93 CALM      30.21S
STANTON        CLEAR     47  44  91 S3        30.22S
DODGE CENTER   CLEAR     48  46  93 W6        30.24R
WINONA         CLEAR     48  46  93 CALM      30.22S
AUSTIN         CLEAR     48  46  93 NW3       30.24R
PRESTON        CLEAR     50  48  93 NW5       30.22S
$$
ABBREVIATIONS USED IN REMARKS
   TC - TEMPERATURES IN CELSIUS
  WCI - WIND CHILL INDEX
   HX - HEAT INDEX
  VSB - VISIBILITY
$$


USA.gov is the U.S. government's official web portal to all federal, state and local government web resources and services.